Location: L�Ave Maria
(50.7161°N, 1.5911°E)
Time: 00:35:41
(UTC+00:00)

Cosmos 2322 - Pass Details

Date: 10 July 2020
Orbit: 841 x 854 km, 71.0° (Epoch: 03 August)

Event Time Altitude Azimuth Distance (km) Brightness Sun altitude
Rises 20:55:10 0° 216° (SW) 3,414 6.7 -6.7°
Reaches altitude 10° 20:57:38 10° 219° (SW) 2,482 6.1 -7.0°
Maximum altitude 21:03:19 68° 303° (WNW) 919 4.2 -7.5°
Drops below altitude 10° 21:09:02 10° 26° (NNE) 2,493 6.5 -8.1°
Sets 21:11:31 0° 29° (NNE) 3,432 7.2 -8.4°
